Regional Weather Roundup
Issued by NWS

Home | Current Version | Previous Version | Text Only | Print | Product List | Glossary On
Versions: 1 2 3 4 5 6 7 8 9 10 11 12 13 14 15 16 17 18 19 20 21 22 23 24 25 26 27 28 29 30 31 32 33 34 35 36 37 38 39 40 41 42 43 44 45 46 47 48 49 50
000
ASUS46 KSEW 290010
RWRWA

WASHINGTON REGIONAL WEATHER ROUNDUP
NATIONAL WEATHER SERVICE SEATTLE WA
500 PM PDT THU APR 28 2016

NOTE:"FAIR" INDICATES FEW OR NO CLOUDS BELOW 12,000 FEET WITH NO
SIGNIFICANT WEATHER AND/OR OBSTRUCTIONS TO VISIBILITY.

WAZ505-507>509-290100-
SEATTLE, TACOMA, EVERETT, AND VICINITY

CITY           SKY/WX    TMP DP  RH WIND       PRES   REMARKS
EVERETT        CLOUDY    56  46  69 N9        30.09S
6HR MIN TEMP:  54; 6HR MAX TEMP:  61;

BOEING FIELD   CLOUDY    62  44  51 S3        30.07F
6HR MIN TEMP:  56; 6HR MAX TEMP:  64;

RENTON         CLOUDY    62  43  49 E5        30.07F
6HR MIN TEMP:  57; 6HR MAX TEMP:  63;

SEATAC AIRPORT CLOUDY    61  41  47 SW7       30.09F
6HR MIN TEMP:  55; 6HR MAX TEMP:  63;

JBLM-MCCHORD   CLOUDY    61  46  57 W13       30.08F
6HR MIN TEMP:  56; 6HR MAX TEMP:  63;

PUYALLUP       CLOUDY    61  45  55 CALM      30.09S
BREMERTON      CLOUDY    61  46  59 SW13      30.10S
6HR MIN TEMP:  55; 6HR MAX TEMP:  64;

JBLM-FT LEWIS  CLOUDY    60  46  59 SW14      30.08S
6HR MIN TEMP:  56; 6HR MAX TEMP:  64;

TACOMA NARROWS CLOUDY    60  45  57 VRB7      30.09S
6HR MIN TEMP:  52; 6HR MAX TEMP:  63;

$$

WAZ001-503-506-510-514-515-290100-
NORTH INTERIOR

CITY           SKY/WX    TMP DP  RH WIND       PRES   REMARKS
BELLINGHAM     CLOUDY    59  44  57 S9        30.06F
6HR MIN TEMP:  55; 6HR MAX TEMP:  61;

FRIDAY HARBOR  PTSUNNY   60  45  57 SW13G20   30.08F
6HR MIN TEMP:  55; 6HR MAX TEMP:  63;

EASTSOUND      CLOUDY    63  45  51 SE6       30.05S
PORT ANGELES   CLOUDY    53  45  74 NW10G18   30.11F
6HR MIN TEMP:  52; 6HR MAX TEMP:  58; 6HR PCP: TRACE;

EDIZ HOOK      CLOUDY    55  46  72 W17       30.11S
6HR MIN TEMP:  53; 6HR MAX TEMP:  56;

PORT TOWNSEND  CLOUDY    55  46  71 NW12      30.10F
NAS WHIDBEY    PTSUNNY   57  48  72 W15G23    30.13F
6HR MIN TEMP:  54; 6HR MAX TEMP:  58;

ARLINGTON      CLOUDY    57  45  62 NW12      30.10S
6HR MIN TEMP:  55; 6HR MAX TEMP:  61;

BURLINGTON     MOSUNNY   59  45  58 SW8       30.09S
$$

WAZ020-022-039-040-504-511-512-290100-
SOUTHWEST INTERIOR

CITY           SKY/WX    TMP DP  RH WIND       PRES   REMARKS
SHELTON        MOSUNNY   61  43  51 SW15      30.06F
6HR MIN TEMP:  52; 6HR MAX TEMP:  63;

OLYMPIA        CLOUDY    60  43  53 W8        30.09S
6HR MIN TEMP:  54; 6HR MAX TEMP:  63;

CHEHALIS       CLOUDY    59  46  63 CALM      30.10S
KELSO          CLOUDY    59  43  55 W13       30.14R
6HR MIN TEMP:  54; 6HR MAX TEMP:  63;

VANCOUVER      CLOUDY    60  43  53 W6        30.09F
6HR MIN TEMP:  53; 6HR MAX TEMP:  62;

SCAPPOOSE, OR  CLOUDY    60  44  55 CALM      30.10S
6HR MIN TEMP:  55; 6HR MAX TEMP:  61;

PORTLAND, OR   CLOUDY    62  40  44 W3        30.10F
6HR MIN TEMP:  55; 6HR MAX TEMP:  63;

$$

WAZ021-516-517-290100-
WASHINGTON COAST

CITY           SKY/WX    TMP DP  RH WIND       PRES   REMARKS
FORKS          NOT AVBL
HOQUIAM          N/A    N/A N/A N/A MISG      30.12F
ASTORIA, OR    PTSUNNY   57  47  69 NW13      30.13F
6HR MIN TEMP:  56; 6HR MAX TEMP:  60;

$$

WAZ019-023-024-040-518-519-290100-
CASCADE MOUNTAINS AND COLUMBIA GORGE

CITY           SKY/WX    TMP DP  RH WIND       PRES   REMARKS
STAMPEDE PASS  CLOUDY    41  36  82 VRB5      30.06S
6HR MIN TEMP:  38; 6HR MAX TEMP:  42;

TROUTDALE, OR  CLOUDY    60  44  55 SE5       30.10F
6HR MIN TEMP:  55; 6HR MAX TEMP:  62;

THE DALLES, OR SUNNY     67  40  37 NW20G25   29.99S
6HR MIN TEMP:  62; 6HR MAX TEMP:  70;

$$

WAZ026-027-041>044-520-521-290100-
EAST SLOPES

CITY           SKY/WX    TMP DP  RH WIND       PRES   REMARKS
OMAK           PTSUNNY   67  39  35 NW16      29.89S
6HR MIN TEMP:  62; 6HR MAX TEMP:  73;

WENATCHEE      MOSUNNY   72  37  28 W13       29.89F
6HR MIN TEMP:  62; 6HR MAX TEMP:  73;

ELLENSBURG     CLOUDY    65  42  43 NW24G31   29.94S
6HR MIN TEMP:  61; 6HR MAX TEMP:  72;

YAKIMA         CLOUDY    73  36  25 E5        29.91F
6HR MIN TEMP:  66; 6HR MAX TEMP:  75;

$$

WAZ028-034-035-290100-
COLUMBIA BASIN

CITY           SKY/WX    TMP DP  RH WIND       PRES   REMARKS
EPHRATA        PTSUNNY   68  42  38 SW8       29.90S
6HR MIN TEMP:  61; 6HR MAX TEMP:  72;

MOSES LAKE     MOSUNNY   71  40  32 VRB7      29.90F
6HR MIN TEMP:  60; 6HR MAX TEMP:  72;

PASCO          SUNNY     73  39  29 VRB3      29.91F
6HR MIN TEMP:  61; 6HR MAX TEMP:  74;

HERMISTON, OR  SUNNY     70  39  32 SW3       29.91F
6HR MIN TEMP:  57; 6HR MAX TEMP:  73;

$$

WAZ036>038-290100-
NORTHEAST WASHINGTON

CITY           SKY/WX    TMP DP  RH WIND       PRES   REMARKS
SPOKANE GEIGER PTSUNNY   63  32  31 E9        29.93S
6HR MIN TEMP:  59; 6HR MAX TEMP:  66;

SPOKANE FELTS  MOSUNNY   67  34  29 E14       29.93F
6HR MIN TEMP:  61; 6HR MAX TEMP:  68;

FAIRCHILD AFB  MOSUNNY   62  34  35 NE8       29.92F
6HR MIN TEMP:  58; 6HR MAX TEMP:  64;

COEURDALENE,ID PTSUNNY   63  36  36 E8        29.92S
6HR MIN TEMP:  57; 6HR MAX TEMP:  64;

DEER PARK      MOSUNNY   65  33  30 NE7G18    29.94S
6HR MIN TEMP:  59; 6HR MAX TEMP:  66;

$$

WAZ029>033-290100-
SOUTHEAST WASHINGTON

CITY           SKY/WX    TMP DP  RH WIND       PRES   REMARKS
PULLMAN        CLOUDY    56  42  59 E13       29.95F
6HR MIN TEMP:  54; 6HR MAX TEMP:  60;

LEWISTON, ID   CLOUDY    60  44  55 SE9       29.93F
6HR MIN TEMP:  58; 6HR MAX TEMP:  67;

WALLA WALLA    SUNNY     66  40  38 N3        29.93F
6HR MIN TEMP:  54; 6HR MAX TEMP:  66;

PENDLETON, OR  SUNNY     66  36  32 NW8       29.93F
6HR MIN TEMP:  56; 6HR MAX TEMP:  67;

$$



USA.gov is the U.S. government's official web portal to all federal, state and local government web resources and services.